This is the latest recevied weather packets stored in our database for station/object KK7MLS-13. If no packets are shown the sender has not sent any weather packets the latest 10 day(s).
| Time | Temp. | Humidity | Pressure | Rain* | Wind** | Luminosity | Snow |
|---|---|---|---|---|---|---|---|
| 1788640814 | 22.22° C | 56% | 1016.8 hPa | 0 mm | - | 462 W/m² | - |
| 1788640509 | 22.78° C | 50% | 1017 hPa | 0 mm | - | 351 W/m² | - |
| 1788640205 | 22.78° C | 51% | 1016.8 hPa | 0 mm | - | 251 W/m² | - |
| 1788639900 | 22.78° C | 51% | 1016.9 hPa | 0 mm | - | 377 W/m² | - |
| 1788639595 | 22.78° C | 48% | 1016.9 hPa | 0 mm | - | 855 W/m² | - |
| 1788639290 | 23.33° C | 47% | 1016.9 hPa | 0 mm | - | 883 W/m² | - |
| 1788638990 | 22.78° C | 51% | 1017 hPa | 0 mm | - | 730 W/m² | - |
| 1788638686 | 22.22° C | 55% | 1017 hPa | 0 mm | - | 827 W/m² | - |
| 1788638384 | 21.67° C | 51% | 1016.9 hPa | 0 mm | - | 533 W/m² | - |
| 1788638079 | 21.67° C | 55% | 1016.9 hPa | 0 mm | - | 510 W/m² | - |
| 1788637775 | 21.67° C | 58% | 1017 hPa | 0 mm | - | 373 W/m² | - |
| 1788637475 | 21.11° C | 56% | 1016.9 hPa | 0 mm | - | 362 W/m² | - |
| 1788637174 | 21.11° C | 58% | 1017.1 hPa | 0 mm | - | 331 W/m² | - |
| 1788636870 | 21.11° C | 54% | 1016.8 hPa | 0 mm | - | 756 W/m² | - |
| 1788636570 | 21.67° C | 55% | 1017.3 hPa | 0 mm | - | 375 W/m² | - |
| 1788636265 | 21.67° C | 54% | 1017.1 hPa | 0 mm | - | 340 W/m² | - |
| 1788635960 | 21.67° C | 57% | 1017.3 hPa | 0 mm | - | 203 W/m² | - |
| 1788635660 | 21.67° C | 55% | 1017.2 hPa | 0 mm | - | 371 W/m² | - |
| 1788635360 | 21.11° C | 60% | 1017.2 hPa | 0 mm | - | 421 W/m² | - |
| 1788635058 | 20.56° C | 60% | 1017.4 hPa | 0 mm | - | 314 W/m² | - |
| 1788634756 | 20.56° C | 58% | 1017.3 hPa | 0 mm | - | 414 W/m² | - |
| 1788634452 | 21.11° C | 57% | 1017.5 hPa | 0 mm | - | 275 W/m² | - |
| 1788634151 | 21.67° C | 56% | 1017.4 hPa | 0 mm | - | 306 W/m² | - |
| 1788633851 | 21.11° C | 61% | 1017.5 hPa | 0 mm | - | 400 W/m² | - |
| 1788633549 | 21.11° C | 61% | 1017.7 hPa | 0 mm | - | 519 W/m² | - |
* Rain latest hour (hover to see other rain measurements)
** Current wind speed in m/s (hover to see current wind gust speed)